ファン・ネス彗星

P/2002 Q1 ( Van Ness )

English version
Home page
Updated on October 22, 2002

---------------------------------------------------------------------

・ プロフィール

発見日 2002年8月17日
発見光度 16.9等
発見者 M. E. Van Ness (Lowell Observatory-LONEOS)

・ 軌道要素

T 2002 July 15.9875 TT                                  MPC
q   1.521342             (2000.0)            P               Q
n   0.1482999      Peri.  184.7494      +0.9981417      +0.0001055
a   3.534887       Node   174.1016      -0.0135859      +0.9752132
e   0.569621       Incl.   36.3675      -0.0594024      -0.2212671
P   6.65
>From 55 observations 2002 Aug. 17-Oct. 14.

・ 星図

・ 光度変化

        m1 = 14.5 + 5 logΔ + 10.0 log r

---------------------------------------------------------------------

軌道要素はM.P.E.C. 2002-U11に掲載されたものです。
星図は StellaNavigator Ver.2.0 for Windows (アストロアーツ 編著 / アスキー出版局刊) で作成したものです。
光度グラフはComet for Windowsで作成したものです。

---------------------------------------------------------------------

Copyright(C) Seiichi Yoshida (comet@aerith.net). All rights reserved.